TimeCST,TemperatureF,Dew PointF,Humidity,Sea Level PressureIn,VisibilityMPH,Wind Direction,Wind SpeedMPH,Gust SpeedMPH,PrecipitationIn,Events,Conditions,WindDirDegrees,DateUTC
12:15 AM,15.6,8.6,74,30.60,10.0,NNW,15.0,21.9,N/A,,Clear,340,2013-11-22 06:15:00
12:35 AM,15.8,8.2,72,30.60,10.0,NNW,13.8,20.7,N/A,,Mostly Cloudy,340,2013-11-22 06:35:00
12:55 AM,15.8,8.4,73,30.61,10.0,NNW,15.0,21.9,N/A,,Overcast,340,2013-11-22 06:55:00
1:15 AM,15.6,7.9,72,30.62,10.0,NNW,12.7,-,N/A,,Mostly Cloudy,340,2013-11-22 07:15:00
1:35 AM,15.6,7.7,71,30.61,10.0,NNW,12.7,-,N/A,,Scattered Clouds,340,2013-11-22 07:35:00
1:55 AM,15.6,7.5,70,30.61,10.0,NNW,12.7,17.3,N/A,,Scattered Clouds,330,2013-11-22 07:55:00
2:15 AM,14.9,6.3,69,30.61,10.0,NNW,10.4,-,N/A,,Clear,340,2013-11-22 08:15:00
2:35 AM,14.2,6.4,71,30.62,10.0,NNW,8.1,-,N/A,,Clear,340,2013-11-22 08:35:00
2:55 AM,13.5,6.4,74,30.62,10.0,NNW,8.1,-,N/A,,Clear,330,2013-11-22 08:55:00
3:15 AM,12.2,5.7,75,30.63,10.0,NW,8.1,-,N/A,,Scattered Clouds,310,2013-11-22 09:15:00
3:35 AM,10.4,4.5,77,30.63,10.0,NW,3.5,-,N/A,,Scattered Clouds,310,2013-11-22 09:35:00
3:55 AM,9.5,3.7,77,30.63,10.0,WNW,6.9,-,N/A,,Clear,300,2013-11-22 09:55:00
4:15 AM,9.0,2.8,76,30.63,10.0,NW,5.8,-,N/A,,Clear,320,2013-11-22 10:15:00
4:35 AM,8.6,2.3,76,30.62,10.0,NW,6.9,-,N/A,,Clear,320,2013-11-22 10:35:00
4:55 AM,8.4,1.9,75,30.61,10.0,NW,10.4,-,N/A,,Scattered Clouds,320,2013-11-22 10:55:00
5:15 AM,7.7,1.0,74,30.60,10.0,NW,10.4,-,N/A,,Scattered Clouds,320,2013-11-22 11:15:00
5:35 AM,7.5,0.5,73,30.59,10.0,NW,10.4,-,N/A,,Clear,320,2013-11-22 11:35:00
5:55 AM,6.4,-0.0,75,30.58,10.0,NNW,10.4,-,N/A,,Clear,330,2013-11-22 11:55:00
6:15 AM,6.1,-0.6,74,30.59,10.0,NNW,9.2,-,N/A,,Scattered Clouds,340,2013-11-22 12:15:00
6:35 AM,5.5,-0.6,76,30.59,10.0,NNW,9.2,-,N/A,,Scattered Clouds,330,2013-11-22 12:35:00
6:55 AM,5.9,-0.8,74,30.60,10.0,NNW,9.2,-,N/A,,Clear,340,2013-11-22 12:55:00
7:15 AM,6.6,-0.4,73,30.61,10.0,NNW,10.4,-,N/A,,Scattered Clouds,330,2013-11-22 13:15:00
7:35 AM,6.8,-0.0,74,30.61,10.0,NNW,13.8,-,N/A,,Scattered Clouds,330,2013-11-22 13:35:00
7:55 AM,6.8,0.1,74,30.62,10.0,NW,12.7,-,N/A,,Clear,320,2013-11-22 13:55:00
8:15 AM,6.8,0.1,74,30.63,10.0,NW,9.2,-,N/A,,Clear,310,2013-11-22 14:15:00
8:35 AM,7.5,0.7,74,30.64,10.0,NW,8.1,-,N/A,,Clear,320,2013-11-22 14:35:00
8:55 AM,8.2,1.0,72,30.66,10.0,NW,6.9,-,N/A,,Clear,320,2013-11-22 14:55:00
9:15 AM,9.5,1.4,70,30.66,10.0,NNW,9.2,-,N/A,,Clear,330,2013-11-22 15:15:00
9:35 AM,11.7,3.0,68,30.65,10.0,NNW,10.4,-,N/A,,Clear,330,2013-11-22 15:35:00
9:55 AM,13.8,3.4,63,30.65,10.0,NW,8.1,-,N/A,,Clear,320,2013-11-22 15:55:00
10:15 AM,15.8,4.5,61,30.65,10.0,NNW,9.2,-,N/A,,Clear,330,2013-11-22 16:15:00
10:35 AM,18.1,5.2,57,30.65,10.0,NNW,8.1,-,N/A,,Clear,330,2013-11-22 16:35:00
10:55 AM,19.9,5.2,53,30.66,10.0,NW,5.8,-,N/A,,Clear,320,2013-11-22 16:55:00
11:15 AM,22.3,7.3,53,30.66,10.0,NW,3.5,-,N/A,,Clear,320,2013-11-22 17:15:00
11:35 AM,25.2,7.2,46,30.66,10.0,Calm,Calm,-,N/A,,Clear,0,2013-11-22 17:35:00
11:55 AM,28.2,-0.4,29,30.65,10.0,WNW,8.1,-,N/A,,Clear,290,2013-11-22 17:55:00
12:15 PM,29.7,1.8,30,30.64,10.0,West,5.8,-,N/A,,Clear,280,2013-11-22 18:15:00
12:35 PM,30.6,-1.1,26,30.63,10.0,West,6.9,-,N/A,,Clear,270,2013-11-22 18:35:00
12:55 PM,32.0,-0.4,25,30.62,10.0,West,8.1,-,N/A,,Clear,270,2013-11-22 18:55:00
1:15 PM,32.2,0.3,26,30.61,10.0,WSW,10.4,-,N/A,,Clear,240,2013-11-22 19:15:00
1:35 PM,32.0,3.6,30,30.59,10.0,SW,9.2,-,N/A,,Clear,230,2013-11-22 19:35:00
1:55 PM,33.1,2.8,28,30.59,10.0,SW,9.2,-,N/A,,Clear,220,2013-11-22 19:55:00
2:15 PM,33.6,0.5,25,30.58,10.0,WSW,9.2,-,N/A,,Clear,250,2013-11-22 20:15:00
2:35 PM,34.5,-1.5,22,30.57,10.0,SW,8.1,-,N/A,,Clear,230,2013-11-22 20:35:00
2:55 PM,34.0,-2.6,21,30.56,10.0,SW,9.2,-,N/A,,Clear,230,2013-11-22 20:55:00
3:15 PM,33.6,0.9,25,30.56,10.0,SW,10.4,-,N/A,,Clear,220,2013-11-22 21:15:00
3:35 PM,33.8,1.2,25,30.56,10.0,WSW,9.2,-,N/A,,Clear,240,2013-11-22 21:35:00
3:55 PM,32.9,1.0,26,30.56,10.0,SW,8.1,-,N/A,,Clear,230,2013-11-22 21:55:00
4:15 PM,33.1,3.4,29,30.56,10.0,WSW,4.6,-,N/A,,Clear,240,2013-11-22 22:15:00
4:35 PM,32.9,3.4,29,30.56,10.0,Calm,Calm,-,N/A,,Clear,0,2013-11-22 22:35:00
4:55 PM,31.6,3.6,30,30.56,10.0,Calm,Calm,-,N/A,,Clear,0,2013-11-22 22:55:00
5:15 PM,30.7,3.7,32,30.55,10.0,Calm,Calm,-,N/A,,Clear,0,2013-11-22 23:15:00
5:35 PM,29.1,4.3,35,30.55,10.0,Calm,Calm,-,N/A,,Clear,0,2013-11-22 23:35:00
5:55 PM,28.4,3.6,35,30.54,10.0,Calm,Calm,-,N/A,,Clear,0,2013-11-22 23:55:00
6:15 PM,28.2,3.9,36,30.54,10.0,WSW,3.5,-,N/A,,Clear,250,2013-11-23 00:15:00
6:35 PM,27.7,6.4,41,30.56,10.0,NNW,9.2,-,N/A,,Clear,330,2013-11-23 00:35:00
6:55 PM,23.9,8.4,52,30.57,10.0,WNW,4.6,-,N/A,,Clear,300,2013-11-23 00:55:00
7:15 PM,21.2,8.2,57,30.57,10.0,Calm,Calm,-,N/A,,Clear,0,2013-11-23 01:15:00
7:35 PM,23.9,8.2,51,30.57,10.0,NNW,5.8,-,N/A,,Clear,330,2013-11-23 01:35:00
7:55 PM,23.9,11.5,59,30.57,10.0,NW,6.9,-,N/A,,Clear,320,2013-11-23 01:55:00
8:15 PM,23.2,12.9,65,30.58,10.0,NNW,3.5,-,N/A,,Clear,330,2013-11-23 02:15:00
8:35 PM,22.8,13.3,67,30.58,10.0,NW,5.8,-,N/A,,Clear,320,2013-11-23 02:35:00
8:55 PM,23.9,13.1,63,30.58,10.0,North,5.8,-,N/A,,Clear,350,2013-11-23 02:55:00
9:15 PM,23.5,13.1,64,30.59,10.0,NNW,9.2,-,N/A,,Clear,330,2013-11-23 03:15:00
9:35 PM,23.7,13.1,64,30.59,10.0,NNW,8.1,-,N/A,,Clear,340,2013-11-23 03:35:00
9:55 PM,23.4,13.3,65,30.60,10.0,NNW,8.1,-,N/A,,Clear,340,2013-11-23 03:55:00
10:15 PM,23.0,13.1,66,30.60,10.0,NNW,6.9,-,N/A,,Clear,340,2013-11-23 04:15:00
10:35 PM,23.0,13.3,66,30.61,10.0,NNW,8.1,-,N/A,,Clear,340,2013-11-23 04:35:00
10:55 PM,23.9,13.1,63,30.61,10.0,North,11.5,-,N/A,,Clear,350,2013-11-23 04:55:00
11:15 PM,23.0,13.1,66,30.63,10.0,North,11.5,16.1,N/A,,Clear,350,2013-11-23 05:15:00
11:35 PM,22.3,12.7,67,30.63,10.0,North,11.5,17.3,N/A,,Clear,350,2013-11-23 05:35:00
11:55 PM,21.9,12.7,68,30.63,10.0,North,11.5,18.4,N/A,,Clear,360,2013-11-23 05:55:00